Volver al catálogo

THORAD AGENA D DEB

ActivoSSO
NORAD 5698·DEBRIS·🇺🇸 United States

Lanzado Apr 8, 1970 desde Vandenberg Space Force Base

Loading…

Próximos Pases (próximas 24 horas)

TLE

ActualizadoSource: Space-Track

Época: Sep 14, 2026, 09:00 UTC

1 05698U 70025MD  26257.37506216  .00000201  00000-0  32335-3 0  9996
2 05698  99.3327 101.0466 0009507  39.0663  87.8983 13.60418616602578

Sigue THORAD AGENA D DEB en tiempo real con AllMySat

Download on the App Store